Radiation Dose at Monitoring Post of Fukushima Daini Nuclear Power Station
Date,Time,MP-1(microSv/h),MP-2(microSv/h),MP-3(microSv/h),MP-4(microSv/h),MP-5(microSv/h),MP-6(microSv/h),MP-7(microSv/h),Wind Direction,Wind Velocity(m/s),Rain
2020/01/09,00:00,0.178,0.161,0.269,0.251,0.251,0.137,0.085,south-southwest,3.5,No
2020/01/09,00:10,0.178,0.161,0.270,0.251,0.250,0.136,0.086,south-southwest,4.1,No
2020/01/09,00:20,0.177,0.162,0.269,0.250,0.252,0.137,0.086,south-southwest,3.9,No
2020/01/09,00:30,0.178,0.162,0.270,0.250,0.252,0.137,0.086,south-southwest,5.2,No
2020/01/09,00:40,0.179,0.162,0.269,0.251,0.252,0.137,0.086,south-southwest,5.9,No
2020/01/09,00:50,0.179,0.162,0.270,0.253,0.251,0.138,0.086,south-southwest,5.2,No
2020/01/09,01:00,0.178,0.162,0.270,0.253,0.252,0.138,0.086,south-southwest,4.8,No
2020/01/09,01:10,0.178,0.161,0.269,0.251,0.252,0.138,0.085,south,5.3,No
2020/01/09,01:20,0.178,0.161,0.269,0.252,0.251,0.137,0.085,south-southwest,6.0,No
2020/01/09,01:30,0.178,0.161,0.270,0.250,0.251,0.138,0.086,southwest,4.8,No
2020/01/09,01:40,0.178,0.161,0.268,0.251,0.251,0.136,0.084,west-southwest,6.1,No
2020/01/09,01:50,0.178,0.161,0.269,0.251,0.250,0.137,0.085,west,7.3,No
2020/01/09,02:00,0.178,0.161,0.269,0.251,0.252,0.137,0.084,west-northwest,5.5,No
2020/01/09,02:10,0.178,0.161,0.268,0.250,0.250,0.137,0.084,northwest,5.5,No
2020/01/09,02:20,0.178,0.161,0.268,0.251,0.250,0.137,0.085,northwest,4.7,No
2020/01/09,02:30,0.178,0.161,0.270,0.251,0.250,0.137,0.085,northwest,5.2,Yes
2020/01/09,02:40,0.179,0.161,0.270,0.251,0.251,0.137,0.085,northwest,4.6,Yes
2020/01/09,02:50,0.178,0.161,0.270,0.251,0.251,0.137,0.085,northwest,3.7,No
2020/01/09,03:00,0.179,0.160,0.269,0.251,0.251,0.136,0.085,north-northwest,5.2,No
2020/01/09,03:10,0.178,0.161,0.271,0.252,0.251,0.137,0.085,north,3.9,No
2020/01/09,03:20,0.178,0.161,0.269,0.250,0.252,0.137,0.085,north,4.3,No
2020/01/09,03:30,0.179,0.161,0.269,0.251,0.251,0.137,0.085,north,3.2,No
2020/01/09,03:40,0.179,0.161,0.272,0.251,0.251,0.137,0.085,north-northeast,3.9,No
2020/01/09,03:50,0.179,0.160,0.268,0.250,0.251,0.137,0.085,north-northeast,4.5,No
2020/01/09,04:00,0.178,0.160,0.269,0.249,0.251,0.137,0.085,north,4.4,No
2020/01/09,04:10,0.178,0.161,0.270,0.251,0.251,0.137,0.085,north-northwest,3.1,No
2020/01/09,04:20,0.178,0.160,0.269,0.251,0.250,0.136,0.085,north-northeast,2.1,No
2020/01/09,04:30,0.176,0.160,0.270,0.250,0.249,0.136,0.084,north,1.4,No
2020/01/09,04:40,0.177,0.160,0.268,0.249,0.250,0.136,0.085,north-northwest,2.2,No
2020/01/09,04:50,0.176,0.159,0.269,0.250,0.250,0.137,0.084,west-northwest,3.3,No
2020/01/09,05:00,0.177,0.159,0.269,0.250,0.250,0.137,0.085,northwest,4.7,No
2020/01/09,05:10,0.177,0.160,0.269,0.249,0.250,0.137,0.084,northwest,4.7,No
2020/01/09,05:20,0.177,0.159,0.270,0.250,0.249,0.137,0.084,northwest,4.0,No
2020/01/09,05:30,0.176,0.160,0.268,0.251,0.248,0.136,0.084,northwest,3.6,No
2020/01/09,05:40,0.177,0.160,0.269,0.250,0.251,0.136,0.084,northwest,4.9,No
2020/01/09,05:50,0.177,0.159,0.268,0.250,0.251,0.137,0.084,northwest,5.8,No
2020/01/09,06:00,0.177,0.160,0.268,0.251,0.249,0.136,0.085,northwest,5.6,No
2020/01/09,06:10,0.178,0.160,0.268,0.250,0.250,0.136,0.084,northwest,4.2,No
2020/01/09,06:20,0.178,0.160,0.267,0.249,0.250,0.137,0.083,west-northwest,5.0,Yes
2020/01/09,06:30,0.178,0.160,0.269,0.249,0.251,0.137,0.084,northwest,5.0,Yes
2020/01/09,06:40,0.178,0.160,0.268,0.250,0.250,0.136,0.085,northwest,5.9,No
2020/01/09,06:50,0.177,0.160,0.267,0.250,0.251,0.137,0.085,northwest,7.0,No
2020/01/09,07:00,0.179,0.160,0.270,0.249,0.250,0.137,0.084,west-northwest,5.8,No
2020/01/09,07:10,0.177,0.159,0.268,0.250,0.250,0.137,0.085,west-northwest,6.0,No
2020/01/09,07:20,0.177,0.159,0.269,0.251,0.251,0.136,0.085,west-northwest,5.5,No
2020/01/09,07:30,0.178,0.160,0.268,0.250,0.249,0.137,0.085,west-northwest,5.5,No
2020/01/09,07:40,0.177,0.159,0.269,0.250,0.251,0.136,0.084,west-northwest,5.1,No
2020/01/09,07:50,0.177,0.161,0.269,0.250,0.252,0.136,0.083,northwest,4.5,No
2020/01/09,08:00,0.178,0.159,0.269,0.251,0.250,0.137,0.085,north,3.3,No
2020/01/09,08:10,0.177,0.159,0.270,0.251,0.250,0.137,0.085,north,4.3,No
2020/01/09,08:20,0.177,0.160,0.271,0.250,0.251,0.136,0.085,north,4.7,No
2020/01/09,08:30,0.177,0.161,0.270,0.250,0.250,0.137,0.085,north-northwest,4.1,No
2020/01/09,08:40,0.178,0.161,0.269,0.251,0.249,0.137,0.085,north-northwest,2.7,No
2020/01/09,08:50,0.176,0.159,0.271,0.250,0.250,0.136,0.084,north,4.7,No
2020/01/09,09:00,0.177,0.161,0.269,0.250,0.251,0.136,0.084,north,7.0,No
2020/01/09,09:10,0.177,0.160,0.268,0.249,0.249,0.136,0.084,north-northwest,6.6,No
2020/01/09,09:20,0.177,0.160,0.270,0.250,0.250,0.136,0.084,north,7.0,No
2020/01/09,09:30,0.177,0.159,0.269,0.250,0.249,0.136,0.084,north,8.1,No
2020/01/09,09:40,0.178,0.160,0.268,0.249,0.250,0.136,0.084,north,7.2,No
2020/01/09,09:50,0.178,0.160,0.269,0.249,0.249,0.136,0.084,north,6.7,No
2020/01/09,10:00,0.177,0.160,0.269,0.250,0.250,0.136,0.084,north,7.3,No
2020/01/09,10:10,0.178,0.160,0.268,0.249,0.249,0.136,0.085,north,8.6,No
2020/01/09,10:20,0.177,0.158,0.269,0.251,0.250,0.137,0.084,north,8.2,No
2020/01/09,10:30,0.177,0.159,0.266,0.249,0.248,0.137,0.084,north,7.8,No
2020/01/09,10:40,0.177,0.160,0.269,0.251,0.251,0.137,0.084,north,6.3,No
2020/01/09,10:50,0.179,0.159,0.270,0.251,0.251,0.137,0.084,north,6.1,No
2020/01/09,11:00,0.177,0.160,0.270,0.250,0.251,0.137,0.083,north,6.0,No
2020/01/09,11:10,0.177,0.161,0.269,0.251,0.250,0.137,0.085,north-northeast,7.4,No
2020/01/09,11:20,0.178,0.160,0.268,0.249,0.248,0.137,0.084,north-northeast,6.2,No
2020/01/09,11:30,0.177,0.160,0.268,0.250,0.251,0.137,0.083,north-northeast,5.4,No
2020/01/09,11:40,0.177,0.161,0.269,0.251,0.250,0.136,0.084,north,4.9,No
2020/01/09,11:50,0.178,0.160,0.268,0.250,0.249,0.136,0.084,north,4.4,Yes
2020/01/09,12:00,0.177,0.160,0.270,0.252,0.250,0.136,0.084,north,3.5,Yes
2020/01/09,12:10,0.178,0.160,0.269,0.250,0.249,0.137,0.085,north,3.1,No
2020/01/09,12:20,0.178,0.160,0.270,0.249,0.249,0.137,0.084,north-northeast,3.4,No
2020/01/09,12:30,0.178,0.159,0.269,0.250,0.252,0.137,0.084,north-northwest,0.6,Yes
2020/01/09,12:40,0.176,0.161,0.268,0.250,0.250,0.137,0.085,west-southwest,1.3,Yes
2020/01/09,12:50,0.178,0.160,0.269,0.250,0.251,0.137,0.084,-,CALM,Yes
2020/01/09,13:00,0.178,0.160,0.269,0.250,0.251,0.138,0.084,west-northwest,3.0,Yes
2020/01/09,13:10,0.177,0.160,0.269,0.250,0.249,0.137,0.085,northwest,3.4,Yes
2020/01/09,13:20,0.178,0.161,0.268,0.250,0.251,0.137,0.085,north,2.6,No
2020/01/09,13:30,0.177,0.161,0.271,0.251,0.250,0.137,0.084,north-northwest,3.1,No
2020/01/09,13:40,0.177,0.160,0.269,0.249,0.250,0.138,0.085,west-northwest,4.3,No
2020/01/09,13:50,0.178,0.160,0.268,0.250,0.251,0.137,0.084,northwest,5.2,No
2020/01/09,14:00,0.177,0.160,0.269,0.251,0.251,0.136,0.084,northwest,5.2,No
2020/01/09,14:10,0.178,0.161,0.268,0.250,0.252,0.137,0.085,northwest,5.6,No
2020/01/09,14:20,0.178,0.159,0.269,0.252,0.249,0.135,0.084,west-northwest,5.1,No
2020/01/09,14:30,0.177,0.160,0.270,0.250,0.249,0.136,0.084,west-northwest,4.1,No
2020/01/09,14:40,0.179,0.159,0.271,0.250,0.250,0.137,0.085,northwest,4.2,No
2020/01/09,14:50,0.178,0.160,0.269,0.250,0.249,0.137,0.084,north,5.8,No
2020/01/09,15:00,0.178,0.161,0.271,0.249,0.251,0.137,0.085,north-northeast,6.1,No
2020/01/09,15:10,0.177,0.160,0.269,0.249,0.250,0.134,0.084,north-northeast,4.0,No
2020/01/09,15:20,0.179,0.159,0.269,0.250,0.251,0.136,0.084,north-northeast,5.3,No
2020/01/09,15:30,0.178,0.160,0.270,0.253,0.252,0.137,0.084,north-northeast,4.5,No
2020/01/09,15:40,0.178,0.160,0.270,0.251,0.250,0.137,0.084,north-northeast,4.6,No
2020/01/09,15:50,0.178,0.160,0.268,0.251,0.251,0.137,0.085,northeast,4.1,No
2020/01/09,16:00,0.179,0.161,0.271,0.253,0.251,0.136,0.084,north-northeast,4.5,No
2020/01/09,16:10,0.179,0.161,0.270,0.251,0.251,0.137,0.085,north-northeast,4.1,No
2020/01/09,16:20,0.177,0.160,0.269,0.251,0.251,0.138,0.084,northeast,3.2,No
2020/01/09,16:30,0.177,0.160,0.269,0.251,0.251,0.137,0.084,north-northeast,3.1,No
2020/01/09,16:40,0.177,0.160,0.270,0.252,0.250,0.137,0.084,north,1.6,No
2020/01/09,16:50,0.177,0.160,0.268,0.251,0.250,0.137,0.085,northwest,0.6,No
2020/01/09,17:00,0.179,0.160,0.269,0.251,0.251,0.138,0.084,west,2.2,No
2020/01/09,17:10,0.179,0.160,0.270,0.251,0.251,0.137,0.085,west,4.8,No
2020/01/09,17:20,0.176,0.159,0.268,0.249,0.251,0.137,0.084,west,7.4,No
2020/01/09,17:30,0.177,0.161,0.270,0.249,0.250,0.137,0.084,west,9.2,No
2020/01/09,17:40,0.178,0.160,0.269,0.251,0.251,0.137,0.085,west-northwest,9.6,No
2020/01/09,17:50,0.177,0.160,0.271,0.252,0.250,0.137,0.084,west-northwest,9.2,No
2020/01/09,18:00,0.178,0.159,0.271,0.251,0.249,0.137,0.085,west-northwest,8.4,No
2020/01/09,18:10,0.179,0.161,0.269,0.252,0.251,0.138,0.084,west-northwest,7.4,No
2020/01/09,18:20,0.177,0.160,0.268,0.250,0.250,0.137,0.085,west-northwest,7.6,No
2020/01/09,18:30,0.178,0.160,0.270,0.252,0.250,0.137,0.084,west-northwest,6.7,No
2020/01/09,18:40,0.178,0.160,0.271,0.251,0.249,0.137,0.084,west-northwest,5.4,No
2020/01/09,18:50,0.178,0.161,0.269,0.252,0.250,0.137,0.085,northwest,4.9,No
2020/01/09,19:00,0.179,0.161,0.269,0.250,0.251,0.137,0.084,northwest,5.6,No
2020/01/09,19:10,0.178,0.160,0.271,0.251,0.250,0.136,0.084,west-northwest,4.9,No
2020/01/09,19:20,0.179,0.159,0.270,0.252,0.251,0.137,0.084,west-northwest,4.5,No
2020/01/09,19:30,0.179,0.161,0.269,0.252,0.252,0.137,0.084,north-northwest,2.8,No
2020/01/09,19:40,0.179,0.162,0.270,0.252,0.250,0.137,0.085,north-northeast,3.2,No
2020/01/09,19:50,0.178,0.160,0.270,0.252,0.250,0.137,0.084,north,2.6,No
2020/01/09,20:00,0.178,0.160,0.270,0.250,0.249,0.138,0.084,north-northwest,2.8,No
2020/01/09,20:10,0.178,0.160,0.270,0.251,0.251,0.138,0.084,north-northwest,3.3,No
2020/01/09,20:20,0.178,0.160,0.269,0.252,0.251,0.138,0.084,northwest,3.6,No
2020/01/09,20:30,0.178,0.159,0.271,0.252,0.251,0.137,0.084,west-northwest,6.8,No
2020/01/09,20:40,0.179,0.160,0.270,0.252,0.251,0.137,0.085,northwest,6.8,No
2020/01/09,20:50,0.177,0.161,0.269,0.252,0.251,0.137,0.084,west-northwest,7.7,No
2020/01/09,21:00,0.177,0.161,0.270,0.252,0.251,0.137,0.085,west-northwest,8.4,No
2020/01/09,21:10,0.178,0.160,0.269,0.251,0.249,0.137,0.085,west-northwest,7.6,No
2020/01/09,21:20,0.177,0.160,0.270,0.250,0.250,0.137,0.085,northwest,7.5,No
2020/01/09,21:30,0.179,0.160,0.269,0.250,0.250,0.137,0.085,northwest,7.6,No
2020/01/09,21:40,0.179,0.160,0.270,0.253,0.250,0.138,0.084,northwest,7.3,No
2020/01/09,21:50,0.178,0.160,0.270,0.252,0.250,0.137,0.085,northwest,6.6,No
2020/01/09,22:00,0.179,0.160,0.271,0.252,0.250,0.137,0.084,north-northwest,5.3,No
2020/01/09,22:10,0.179,0.160,0.270,0.251,0.251,0.137,0.085,north,6.1,No
2020/01/09,22:20,0.178,0.161,0.271,0.253,0.251,0.137,0.084,north-northwest,7.1,No
2020/01/09,22:30,0.179,0.161,0.270,0.252,0.251,0.138,0.084,north-northwest,9.0,No
2020/01/09,22:40,0.179,0.161,0.271,0.252,0.250,0.137,0.085,north-northwest,8.8,No
2020/01/09,22:50,0.178,0.160,0.270,0.252,0.251,0.137,0.084,northwest,7.3,No
2020/01/09,23:00,0.179,0.161,0.271,0.252,0.251,0.138,0.086,northwest,6.2,No
2020/01/09,23:10,0.179,0.161,0.271,0.253,0.251,0.137,0.085,northwest,7.0,No
2020/01/09,23:20,0.179,0.160,0.271,0.252,0.251,0.137,0.085,northwest,6.2,No
2020/01/09,23:30,0.179,0.161,0.271,0.252,0.252,0.138,0.084,north-northwest,6.6,No
2020/01/09,23:40,0.179,0.161,0.269,0.252,0.250,0.138,0.084,north-northwest,6.3,No
2020/01/09,23:50,0.179,0.161,0.271,0.252,0.251,0.138,0.085,north-northwest,7.3,No
